Regional Weather Roundup
Issued by NWS

Home | Current Version | Previous Version | Text Only | Print | Product List | Glossary Off
Versions: 1 2 3 4 5 6 7 8 9 10 11 12 13 14 15 16 17 18 19 20 21 22 23 24 25 26 27 28 29 30 31 32 33 34 35 36 37 38 39 40 41 42 43 44 45 46 47 48 49 50

000
ASUS43 KLSX 060959
RWRMO

WEATHER SUMMARY FOR MISSOURI
NATIONAL WEATHER SERVICE SPRINGFIELD MO
400 AM CST FRI MAR 06 2015

NOTE: "FAIR" INDICATES FEW OR NO CLOUDS BELOW 12,000 FEET WITH NO
       SIGNIFICANT WEATHER AND/OR OBSTRUCTIONS TO VISIBILITY.
       CURRENT SKY AND/OR WEATHER CONDITIONS ARE NOT AVAILABLE FOR
       CHILLICOTHE AND FARMINGTON.

MOZ001>031-035>038-043-044-053-054-061100-
...NORTHERN AND WESTERN MISSOURI...

CITY           SKY/WX    TMP DP  RH WIND       PRES   REMARKS
KANSAS CTY INT FAIR      26  15  63 S15       30.32F WCI  14
KANSAS C DTWN  CLEAR     27  14  58 S9        30.36F WCI  18
LEE`S SUMMIT   CLEAR     24  14  65 S12       30.36F WCI  13
ST JOSEPH      CLEAR     24  16  71 S10       30.31F WCI  14
CHILLICOTHE      N/A     22  11  62 S8        30.38F WCI  12
KIRKSVILLE     CLEAR     15   9  76 S10       30.39F WCI   2

$$
MOZ066>068-077>081-088>096-101>105-061100-
...SOUTHWEST MISSOURI...

CITY           SKY/WX    TMP DP  RH WIND       PRES   REMARKS
SPRINGFIELD    CLEAR     21  13  71 S10       30.45F WCI  10
JOPLIN         CLEAR     25  15  66 S8        30.46F WCI  16

$$
MOZ032>034-039>042-045>050-055>058-069>072-061100-
...CENTRAL MISSOURI...

CITY           SKY/WX    TMP DP  RH WIND       PRES   REMARKS
COLUMBIA       CLEAR     16   9  74 SE8       30.45F WCI   5
JEFFERSON CITY CLEAR     18   9  68 E5        30.50F WCI  11
ROLLA          CLEAR     19   9  65 S8        30.45F WCI   9
SEDALIA        CLEAR     22  11  62 S10       30.43F WCI  11
OSAGE BEACH    CLEAR     18   9  68 SE7       30.47S WCI   8

$$
MOZ051-052-059>065-061100-
...EAST CENTRAL MISSOURI...

CITY           SKY/WX    TMP DP  RH WIND       PRES   REMARKS
ST LOUIS INTL  PTCLDY    16   6  65 SE6       30.53F WCI   7
SPIRIT OF STL  CLEAR     14   6  70 CALM      30.53F
ST CHARLES     CLEAR      7   2  80 E9        30.53F WCI  -7

$$
MOZ072>076-082>087-097>100-106>115-061100-
...SOUTH CENTRAL AND SOUTHEAST MISSOURI...

CITY           SKY/WX    TMP DP  RH WIND       PRES   REMARKS
CAPE GIRARDEAU FOG       -1  -3  91 CALM      30.59F VSB 1/4
FARMINGTON     CLEAR      9   5  85 S3        30.54S
POPLAR BLUFF   PTCLDY    11   7  84 CALM      30.58S
WEST PLAINS    PTCLDY    14   6  70 S3        30.50S

$$



USA.gov is the U.S. government's official web portal to all federal, state and local government web resources and services.